Dallas/Ft Worth, TX

2:48 AM CST on November 20, 2019 (GMT -0600)
Dallas-Fort Worth International

Weather History for KDFW - September, 2019

Change the Weather History Date:

Saturday, September 7, 2019

  Actual Average Record
Temperature  
Mean Temperature 88 °F 81 °F  
Max Temperature 100 °F 91 °F 104 °F (2012)
Min Temperature 75 °F 71 °F 56 °F (1918)
Degree Days  
Heating Degree Days 0 0  
Month to date heating degree days 0 0  
Since 1 July heating degree days 0 0  
Cooling Degree Days 22 16  
Month to date cooling degree days 150 119  
Year to date cooling degree days 2352 2301  
Growing Degree Days 38 (Base 50)    
Moisture  
Dew Point 62 °F    
Average Humidity 45    
Maximum Humidity 69    
Minimum Humidity 23    
Precipitation  
Precipitation 0.00 in 0.09 in 1.44 in (1991)
Month to date precipitation 0.00 0.66  
Year to date precipitation 27.13 24.77  
Sea Level Pressure  
Sea Level Pressure 29.93 in    
Wind  
Wind Speed 5 mph ()    
Max Wind Speed 20 mph    
Max Gust Speed 23 mph    
Visibility 10.0 miles    
Events      
T = Trace of Precipitation, MM = Missing Value Source: Averaged Metar Reports

Daily Weather History Graph

Daily Weather History Graph

Search for Another Location

Airport or City:

Astronomy

Sep. 07, 2019 Rise Set
Actual Time 7:06 AM CDT 7:45 PM CDT
Civil Twilight 6:41 AM CDT 8:10 PM CDT
Nautical Twilight 6:12 AM CDT 8:39 PM CDT
Astronomical Twilight 5:42 AM CDT 9:09 PM CDT
Moon 3:47 PM CDT (9/7) 1:13 AM CDT (9/7)
Length of Visible Light 13h 28m
Length of Day
12h 38m
Waxing Gibbous, 66% of the Moon is Illuminated
Sep 7
Waxing Gibbous
Sep 13
Full
Sep 21
Last Quarter
Sep 28
New
Oct 5
First Quarter

Hourly Weather History & Observations

Time (CDT) Temp. Heat Index Dew Point Humidity Pressure Visibility Wind Dir Wind Speed Gust Speed Precip Events Conditions
12:53 AM 82.0 °F 83.8 °F 64.9 °F 56% 29.96 in 10.0 mi East 4.6 mph - N/A   Clear
1:53 AM 82.0 °F 83.8 °F 64.9 °F 56% 29.97 in 10.0 mi SE 3.5 mph - N/A   Clear
2:53 AM 81.0 °F 82.7 °F 64.9 °F 58% 29.96 in 10.0 mi Calm Calm - N/A   Clear
3:53 AM 79.0 °F - 66.0 °F 64% 29.96 in 10.0 mi ESE 3.5 mph - N/A   Clear
4:53 AM 79.0 °F - 66.0 °F 64% 29.96 in 10.0 mi South 3.5 mph - N/A   Clear
5:53 AM 78.1 °F - 64.9 °F 64% 29.96 in 10.0 mi South 3.5 mph - N/A   Clear
6:53 AM 75.9 °F - 64.9 °F 69% 29.97 in 10.0 mi SSW 4.6 mph - N/A   Scattered Clouds
7:53 AM 77.0 °F - 64.9 °F 66% 29.99 in 10.0 mi South 4.6 mph - N/A   Partly Cloudy
8:53 AM 82.0 °F 83.4 °F 64.0 °F 54% 29.99 in 10.0 mi SSW 8.1 mph - N/A   Partly Cloudy
9:53 AM 86.0 °F 88.2 °F 66.0 °F 51% 29.99 in 10.0 mi SSW 5.8 mph - N/A   Partly Cloudy
10:53 AM 91.0 °F 93.8 °F 66.0 °F 44% 29.98 in 10.0 mi South 8.1 mph - N/A   Clear
11:53 AM 93.9 °F 97.0 °F 66.0 °F 40% 29.97 in 10.0 mi SW 9.2 mph - N/A   Clear
12:53 PM 96.1 °F 98.3 °F 64.0 °F 35% 29.95 in 10.0 mi South 9.2 mph - N/A   Scattered Clouds
1:53 PM 97.0 °F 97.8 °F 62.1 °F 31% 29.93 in 10.0 mi Variable 4.6 mph - N/A   Scattered Clouds
2:53 PM 98.1 °F 98.6 °F 61.0 °F 29% 29.91 in 10.0 mi SSW 9.2 mph 16.1 mph N/A   Scattered Clouds
3:53 PM 100.0 °F 100.2 °F 59.0 °F 26% 29.88 in 10.0 mi SSW 17.3 mph - N/A   Partly Cloudy
4:53 PM 100.0 °F 100.2 °F 59.0 °F 26% 29.87 in 10.0 mi SW 11.5 mph - N/A   Partly Cloudy
5:53 PM 99.0 °F 98.1 °F 57.9 °F 25% 29.86 in 10.0 mi SW 11.5 mph - N/A   Partly Cloudy
6:53 PM 97.0 °F 94.6 °F 54.0 °F 23% 29.85 in 10.0 mi SSW 11.5 mph - N/A   Partly Cloudy
7:53 PM 93.9 °F 92.0 °F 55.0 °F 27% 29.86 in 10.0 mi SSW 9.2 mph - N/A   Partly Cloudy
8:53 PM 87.1 °F 85.7 °F 55.9 °F 35% 29.87 in 10.0 mi SSE 8.1 mph - N/A   Clear
9:53 PM 84.9 °F 84.2 °F 57.9 °F 40% 29.88 in 10.0 mi SE 5.8 mph - N/A   Clear
10:53 PM 82.9 °F 83.2 °F 60.1 °F 46% 29.90 in 10.0 mi SSE 6.9 mph - N/A   Clear
11:53 PM 84.0 °F 83.8 °F 59.0 °F 43% 29.90 in 10.0 mi SSE 8.1 mph - N/A   Clear